Location: Bastelaar
(51.0950°N, 3.8602°E)
Time: 15:42:51
(UTC+00:00)

RESURS DK-1 - Pass Details

Date: 18 November 2025
Orbit: 524 x 534 km, 69.9° (Epoch: 12 December)

Event Time Altitude Azimuth Distance (km) Brightness Sun altitude
Rises 16:51:46 0° 328° (NNW) 2,698 6.0 -9.2°
Reaches altitude 10° 16:53:58 10° 329° (NNW) 1,803 5.1 -9.6°
Maximum altitude 16:58:00 85° 56° (NE) 546 2.2 -10.2°
Drops below altitude 10° 17:02:00 10° 148° (SSE) 1,789 4.8 -10.8°
Sets 17:04:10 0° 149° (SSE) 2,674 5.7 -11.1°
